Skip Page Navigation
NASA JPL Caltech
NASA Logo - Jet Propulsion Laboratory + View the NASA Portal
+ Center for Near-Earth Object Studies
JPL Home Earth Solar System Stars & Galaxies Technology
JPL Solar System Dynamics
BODIES ORBITS EPHEMERIDES TOOLS PHYSICAL DATA DISCOVERY FAQ SITE MAP
IMPORTANT: The SSD Announcement email list is now available. Major changes are coming in the near future, including possible hostname and/or URL changes. To be notified of such changes, subscribe to this email list.

Please visit this page for more details.


JPL Small-Body Database Browser
Search: [ help ]  
447607 (2006 UV125)
Classification: Main-belt Asteroid          SPK-ID: 2447607
Ephemeris | Orbit Diagram | Orbital Elements | Mission Design | Physical Parameters | Discovery Circumstances ]

[ hide orbit diagram ]

For accurate long-term ephemerides, please instead use our Horizons system.This orbit viewer was implemented using two-body methods, and hence should not be used for determining accurate long-term trajectories (over several years or decades) or planetary encounter circumstances.


[ revert to old Java-based viewer ]

Orbital Elements at Epoch 2458600.5 (2019-Apr-27.0) TDB
Reference: JPL 8 (heliocentric ecliptic J2000)
 Element Value Uncertainty (1-sigma)   Units 
e .08772864788391507 7.2304e-08  
a 2.764487827421413 4.019e-08 au
q 2.52196304823019 1.8837e-07 au
i 3.39350596153076 7.6801e-06 deg
node 266.0498492442501 0.00018589 deg
peri 176.6233925003718 0.00020747 deg
M 218.26738020906 9.0513e-05 deg
tp 2459261.479155390354
(2021-Feb-15.97915539)
0.00042461 TDB
period 1678.883070753329
4.60
3.6612e-05
1.002e-07
d
yr
n .2144282745304382 4.6761e-09 deg/d
Q 3.007012606612635 4.3716e-08 au
  Orbit Determination Parameters
   # obs. used (total)      64  
   data-arc span      6089 days (16.67 yr)  
   first obs. used      2001-10-15  
   last obs. used      2018-06-17  
   planetary ephem.      DE431  
   SB-pert. ephem.      SB431-N16  
   condition code      0  
   norm. resid. RMS      .68539  
   source      ORB  
   producer      Otto Matic  
   solution date      2019-Jul-14 08:22:25  

Additional Information
 Earth MOID = 1.53785 au 
 Jupiter MOID = 2.17391 au 
 T_jup = 3.332 
[ show covariance matrix ]

Ephemeris | Orbit Diagram | Orbital Elements | Mission Design | Physical Parameters | Discovery Circumstances ]

Physical Parameter Table
Parameter Symbol Value Units Sigma Reference Notes
absolute magnitude H 17.3   n/a MPO456121  

447607 (2006 UV125)          Discovered 2006-Oct-19 by Spacewatch at Kitt Peak
Reference: Last Updated: 2015-10-28
Ephemeris | Orbit Diagram | Orbital Elements | Mission Design | Physical Parameters | Discovery Circumstances ]
ABOUT SSD CREDITS/AWARDS PRIVACY/COPYRIGHT GLOSSARY LINKS
FirstGov 2019-Dec-05 15:43 UT
(server date/time)  
NASA Home Page
Site Manager:   Ryan S. Park
Webmaster  Alan B. Chamberlin